This is the latest recevied weather packets stored in our database for station/object KI7CSN-13. If no packets are shown the sender has not sent any weather packets the latest 10 day(s).
| Time | Temp. | Humidity | Pressure | Rain* | Wind** | Luminosity | Snow |
|---|---|---|---|---|---|---|---|
| 1777766568 | 26.11° C | 15% | 982.8 hPa | 0 mm | - | - | - |
| 1777766268 | 26.67° C | 15% | 982.8 hPa | 0 mm | - | - | - |
| 1777765968 | 26.67° C | 15% | 982.6 hPa | 0 mm | - | - | - |
| 1777765668 | 26.67° C | 15% | 982.6 hPa | 0 mm | - | - | - |
| 1777765368 | 26.67° C | 15% | 982.5 hPa | 0 mm | - | - | - |
| 1777765068 | 27.22° C | 15% | 982.8 hPa | 0 mm | - | - | - |
| 1777764768 | 26.67° C | 15% | 982.6 hPa | 0 mm | - | - | - |
| 1777764468 | 27.22° C | 15% | 982.6 hPa | 0 mm | - | - | - |
| 1777764168 | 27.22° C | 15% | 982.6 hPa | 0 mm | - | - | - |
| 1777763868 | 26.11° C | 15% | 982.5 hPa | 0 mm | - | - | - |
| 1777763568 | 26.11° C | 15% | 982.6 hPa | 0 mm | - | - | - |
| 1777763268 | 27.22° C | 15% | 982.6 hPa | 0 mm | - | - | - |
| 1777762968 | 27.22° C | 15% | 982.6 hPa | 0 mm | - | - | - |
| 1777762668 | 27.22° C | 15% | 982.9 hPa | 0 mm | - | - | - |
| 1777762368 | 26.67° C | 15% | 982.9 hPa | 0 mm | - | - | - |
| 1777762068 | 27.22° C | 15% | 982.8 hPa | 0 mm | - | - | - |
| 1777761768 | 27.22° C | 15% | 982.9 hPa | 0 mm | - | - | - |
| 1777761468 | 27.78° C | 15% | 982.9 hPa | 0 mm | - | - | - |
| 1777761168 | 27.22° C | 15% | 982.9 hPa | 0 mm | - | - | - |
| 1777760868 | 26.67° C | 16% | 983 hPa | 0 mm | - | - | - |
| 1777760568 | 26.67° C | 16% | 983 hPa | 0 mm | - | - | - |
| 1777760268 | 27.22° C | 16% | 983.2 hPa | 0 mm | - | - | - |
| 1777759968 | 27.22° C | 16% | 983.2 hPa | 0 mm | - | - | - |
| 1777759668 | 26.11° C | 16% | 983.4 hPa | 0 mm | - | - | - |
| 1777759368 | 27.22° C | 16% | 983.4 hPa | 0 mm | - | - | - |
* Rain latest hour (hover to see other rain measurements)
** Current wind speed in m/s (hover to see current wind gust speed)